TimeCDT,TemperatureF,Dew PointF,Humidity,Sea Level PressureIn,VisibilityMPH,Wind Direction,Wind SpeedMPH,Gust SpeedMPH,PrecipitationIn,Events,Conditions,WindDirDegrees,DateUTC
12:53 AM,68.0,55.0,63,29.83,10.0,ENE,9.2,-,N/A,,Clear,70,2013-05-24 05:53:00
1:53 AM,72.0,53.1,51,29.91,10.0,East,23.0,27.6,N/A,,Clear,90,2013-05-24 06:53:00
2:53 AM,66.9,55.0,66,29.92,10.0,ESE,19.6,25.3,N/A,,Scattered Clouds,110,2013-05-24 07:53:00
3:53 AM,66.9,53.1,61,29.91,10.0,ESE,15.0,23.0,N/A,,Partly Cloudy,110,2013-05-24 08:53:00
4:53 AM,68.0,52.0,56,29.90,10.0,ESE,19.6,26.5,N/A,,Partly Cloudy,120,2013-05-24 09:53:00
5:53 AM,66.9,52.0,59,29.91,10.0,SE,12.7,20.7,N/A,,Clear,130,2013-05-24 10:53:00
6:53 AM,66.0,52.0,60,29.94,10.0,SSE,8.1,-,N/A,,Clear,160,2013-05-24 11:53:00
7:53 AM,66.9,54.0,63,29.97,10.0,SSW,9.2,-,N/A,,Clear,200,2013-05-24 12:53:00
8:53 AM,69.1,55.9,63,29.99,10.0,South,9.2,16.1,N/A,,Clear,170,2013-05-24 13:53:00
9:53 AM,71.1,57.0,61,30.00,10.0,SSW,8.1,-,N/A,,Clear,200,2013-05-24 14:53:00
10:53 AM,75.9,55.9,50,29.97,10.0,SSE,8.1,-,N/A,,Clear,160,2013-05-24 15:53:00
11:53 AM,81.0,55.9,42,29.94,10.0,SSE,10.4,17.3,N/A,,Clear,150,2013-05-24 16:53:00
12:53 PM,84.0,55.9,38,29.93,10.0,SSE,9.2,21.9,N/A,,Clear,160,2013-05-24 17:53:00
1:53 PM,86.0,55.9,36,29.90,10.0,SE,12.7,19.6,N/A,,Clear,140,2013-05-24 18:53:00
2:53 PM,89.1,55.9,32,29.88,10.0,SE,15.0,25.3,N/A,,Clear,130,2013-05-24 19:53:00
3:53 PM,90.0,55.0,30,29.85,10.0,SE,11.5,18.4,N/A,,Scattered Clouds,130,2013-05-24 20:53:00
4:53 PM,91.0,53.1,27,29.81,10.0,East,11.5,18.4,N/A,,Partly Cloudy,100,2013-05-24 21:53:00
5:53 PM,90.0,53.1,28,29.80,10.0,ESE,5.8,18.4,N/A,,Scattered Clouds,110,2013-05-24 22:53:00
6:53 PM,90.0,53.1,28,29.80,10.0,ESE,16.1,21.9,N/A,,Partly Cloudy,120,2013-05-24 23:53:00
7:53 PM,86.0,54.0,33,29.81,10.0,ESE,16.1,23.0,N/A,,Clear,120,2013-05-25 00:53:00
8:53 PM,82.9,55.0,38,29.84,10.0,SE,16.1,23.0,N/A,,Clear,130,2013-05-25 01:53:00
9:53 PM,79.0,55.0,44,29.88,10.0,ESE,21.9,31.1,N/A,,Clear,120,2013-05-25 02:53:00
10:53 PM,75.0,57.9,55,29.91,10.0,ESE,21.9,34.5,N/A,,Clear,120,2013-05-25 03:53:00
11:53 PM,73.0,55.0,53,29.94,10.0,SE,20.7,28.8,N/A,,Clear,130,2013-05-25 04:53:00